Regional Weather Roundup
Issued by NWS

Home | Current Version | Previous Version | Graphics & Text | Print | Product List | Glossary On
Versions: 1 2 3 4 5 6 7 8 9 10 11 12 13 14 15 16 17 18 19 20 21 22 23 24 25 26 27 28 29 30 31 32 33 34 35 36 37 38 39 40 41 42 43 44 45 46 47 48 49 50
825
ASUS45 KSLC 171310
RWRUT

UTAH REGIONAL WEATHER ROUNDUP
NATIONAL WEATHER SERVICE SALT LAKE CITY UT
600 AM MST FRI NOV 17 2017

UTZ001>011-023>025-171400-

NORTHERN UTAH

CITY           SKY/WX    TMP DP  RH WIND       PRES   REMARKS
BRIGHAM CITY   CLOUDY    41  38  86 S6        29.77R
HILL AFB       RAIN      41  37  87 N9        29.76R
LOGAN          CLOUDY    35  34  96 S7        29.75S WCI  29
OGDEN          LGT RAIN  42  38  85 N5        29.77R
SALT LAKE CITY LGT RAIN  45  42  89 N10       29.73F
TOOELE VALLEY  CLOUDY    43  43 100 CALM      29.76F
WENDOVER       LGT RAIN  45  38  76 VRB6      29.74
HEBER CITY     DRIZZLE   46  37  71 S24G38    29.69F
WEST JORDAN    CLOUDY    41  41 100 NW6       29.76S

$$

UTZ011>015-024>027-171400-

CENTRAL/NORTHEAST UTAH

CITY           SKY/WX    TMP DP  RH WIND       PRES   REMARKS
PROVO AIRPORT  CLOUDY    55  39  54 NW14G22   29.74S
MOAB/CANYONLAN CLOUDY    62  35  36 SW23G31   29.77R
DELTA          CLOUDY    54  34  47 S24G33    29.76F
PRICE          CLOUDY    45  31  58 CALM      29.77F
ROOSEVELT      CLOUDY    41  34  75 SW3       29.74F
VERNAL         CLOUDY    43  33  68 SW6       29.72F

$$

UTZ013>016-019>022-027-171400-

SOUTHERN UTAH

CITY           SKY/WX    TMP DP  RH WIND       PRES   REMARKS
BRYCE CANYON   MOCLDY    45  34  65 SW21G26   29.95F
CEDAR CITY     MOCLDY    53  36  52 S25G33    29.87F
MILFORD        CLOUDY    52  37  56 S17       29.84S
ST GEORGE      CLOUDY    66  38  35 SW17G26   29.84S
HANKSVILLE     PTCLDY    61  32  33 SW16G30   29.81S
BLANDING         N/A     43  26  50 E3        30.02F

$$

REGIONAL REPORTS     COLORADO/ARIZONA

CITY           SKY/WX    TMP DP  RH WIND       PRES   REMARKS
CRAIG, CO      CLOUDY    54  27  35 SW24G33   29.72F
GRAND JUNCTION CLOUDY    56  29  35 VRB6      29.78F
RIFLE, CO      CLOUDY    55  28  35 W12       29.78F
MONTROSE, CO   CLOUDY    55  32  41 SW23G31   29.89S
CORTEZ, CO     CLOUDY    50  30  46 SW7       29.99F
COLORADO CITY    N/A     59  37  44 SW12G29   29.97S
PAGE, AZ       MOCLDY    64  34  32 SW12G25   29.87F
GRAND CANYON   CLOUDY    48  30  49 SW10      30.08F
KINGMAN, AZ    CLOUDY    64  34  32 SW14      29.98S
FLAGSTAFF, AZ  CLOUDY    47  27  45 SW13      30.13S

$$

REGIONAL REPORTS    NEVADA/IDAHO/WYOMING

CITY           SKY/WX    TMP DP  RH WIND       PRES   REMARKS
LAS VEGAS, NV  MOCLDY    67  40  37 SW15G23   29.84R
ELY, NY        MOCLDY    48  33  56 SW21      29.81F
ELKO, NV       PTCLDY    38  35  89 S5        29.78S WCI  34
POCATELLO, ID  PTCLDY    37  35  92 SW15      29.73S WCI  28
BURLEY, ID     CLOUDY    36  33  89 W12       29.77R WCI  28
FORT BRIDGER,  LGT SNOW  33  33 100 NW6       29.76F VSB 1   WCI  28
EVANSTON, WY   LGT SNOW  32  32 100 N7        29.73F VSB 3/4 WCI  26
ROCK SPRINGS,  LGT SNOW  32  31  96 W9        29.76R FOG     WCI  24

$$




USA.gov is the U.S. government's official web portal to all federal, state and local government web resources and services.